User: anonymous   Login
Location: Standeford and Andreas Observatories
(44.1397°N, 93.9969°W)
Time: 15:31:49
(UTC-05:00)
Language:

Cosmos 1500 Rocket - Orbit

View from above orbital plane
View from above orbital plane
View from above satellite
View from above satellite

Ground track
Ground track

The orbit data is extracted from the following two-line orbital elements,

1 14373U 83099B   14296.83667137  .00001026  00000-0  12236-3 0  8052
2 14373 082.5420 068.3405 0020908 174.5286 342.3735 14.83188148677451
Epoch (UTC): 23 October 2014 20:04:48
Eccentricity: 0.0020908
inclination: 82.5420°
perigee height: 604 km
apogee height: 634 km
right ascension of ascending node: 68.3405°
argument of perigee: 174.5286°
revolutions per day: 14.83188148
mean anomaly at epoch: 342.3735°
orbit number at epoch: 67745

The dashed part of the orbit path shows where the satellite is in the earth's shadow,  

DLR